sat.trackr.live / text

‹ back to catalog

STARLINK-34617

NORAD 65015 · 2025-161A

PAYLOAD ACTIVE UNKNOWN

§ Identity

Operator
Country
US
Launch date
2025-07-30
Launch site
AFWTR
Launch vehicle
Mass (kg)
RCS (m²)

Purposes: comms

External: N2YO · Heavens-Above · Gunter

§ Orbital elements

Epoch: 2026-05-24T19:53:40.123104Z

Period
94.11 min
Inclination
53.1604°
Eccentricity
0.0001505
Mean motion
15.30200749 rev/d
Perigee alt
474.2 km
Apogee alt
476.2 km
Semi-major
6,853.3 km
B*
7.1439e-4
RAAN
300.7939°
Arg perigee
59.7592°
Mean anomaly
300.3558°
Rev number
4,588

§ Raw data

STARLINK-346171 65015U 25161A   26144.82893661  .00020859  00000+0  71439-3 0  99922 65015  53.1604 300.7939 0001505  59.7592 300.3558 15.30200749 45887

JSON: /api/v1/satellites/65015 · /tle

For live sub-satellite position, see the globe view (requires WebGL).

§ Visibility from observer

Set your observer location to see the next 7 days of passes ≥ 10°. The values pass through the URL so the page stays shareable.

No JS? Fill the form by hand. The geolocation button needs JavaScript.